This is the latest recevied weather packets stored in our database for station/object KA7EII-13. If no packets are shown the sender has not sent any weather packets the latest 1 day(s).
| Time | Temp. | Humidity | Pressure | Rain* | Wind** | Luminosity | Snow |
|---|---|---|---|---|---|---|---|
| 1778068869 | 0.56° C | 59% | 1108.1 hPa | 0 mm | - | 0 W/m² | - |
| 1778068568 | 0.56° C | 59% | 1107.8 hPa | 0 mm | - | 0 W/m² | - |
| 1778065844 | 0° C | 65% | 1107.6 hPa | 0 mm | - | 0 W/m² | - |
| 1778065542 | 0.56° C | 65% | 1107.7 hPa | 0 mm | - | 0 W/m² | - |
| 1778065239 | 0.56° C | 64% | 1107.7 hPa | 0 mm | - | 0 W/m² | - |
| 1778064935 | 0° C | 65% | 1107.7 hPa | 0 mm | - | 0 W/m² | - |
| 1778064028 | 0° C | 66% | 1107.8 hPa | 0 mm | - | 0 W/m² | - |
| 1778063725 | 0° C | 66% | 1107.5 hPa | 0 mm | - | 0 W/m² | - |
| 1778063120 | 0.56° C | 65% | 1107.4 hPa | 0 mm | - | 0 W/m² | - |
| 1778062817 | 0.56° C | 64% | 1107.3 hPa | 0 mm | - | 0 W/m² | - |
| 1778061909 | 1.11° C | 63% | 1107.3 hPa | 0 mm | - | 0 W/m² | - |
| 1778060699 | 1.67° C | 62% | 1107.4 hPa | 0 mm | - | 0 W/m² | - |
| 1778060396 | 1.67° C | 62% | 1107.4 hPa | 0 mm | - | 0 W/m² | - |
| 1778059186 | 0.56° C | 68% | 1107.5 hPa | 0 mm | - | 0 W/m² | - |
| 1778058884 | 1.11° C | 66% | 1107.5 hPa | 0 mm | - | 0 W/m² | - |
| 1778058279 | 1.67° C | 62% | 1107.1 hPa | 0 mm | - | 0 W/m² | - |
| 1778057975 | 1.67° C | 62% | 1107.1 hPa | 0 mm | - | 0 W/m² | - |
| 1778057672 | 1.11° C | 64% | 1107.3 hPa | 0 mm | - | 0 W/m² | - |
| 1778057368 | 1.67° C | 63% | 1107.1 hPa | 0 mm | - | 0 W/m² | - |
| 1778056756 | 2.78° C | 58% | 1107 hPa | 0 mm | - | 0 W/m² | - |
| 1778056454 | 2.78° C | 58% | 1106.8 hPa | 0 mm | - | 0 W/m² | - |
| 1778056151 | 2.78° C | 58% | 1106.9 hPa | 0 mm | - | 0 W/m² | - |
| 1778055848 | 2.78° C | 58% | 1106.9 hPa | 0 mm | - | 0 W/m² | - |
| 1778052516 | 3.89° C | 55% | 1107 hPa | 0 mm | - | 0 W/m² | - |
| 1778051610 | 5° C | 51% | 1107 hPa | 0 mm | - | 0 W/m² | - |
* Rain latest hour (hover to see other rain measurements)
** Current wind speed in m/s (hover to see current wind gust speed)